Location: Nicosia
(35.1670°N, 33.3670°E)
Time: 21:26:30
(UTC+02:00)

Hubble Space Telescope - Pass Details

Date: 01 December 2023
Orbit: 516 x 519 km, 28.5° (Epoch: 27 February)

Event Time Altitude Azimuth Distance (km) Brightness Sun altitude
Rises 17:01:58 0° 257° (WSW) 2,616 6.6 -5.9°
Reaches altitude 10° 17:04:23 10° 246° (WSW) 1,731 5.2 -6.4°
Maximum altitude 17:07:54 30° 184° (S) 939 2.3 -7.1°
Drops below altitude 10° 17:11:26 10° 122° (ESE) 1,735 3.0 -7.7°
Enters shadow 17:13:19 - 113° (ESE) 2,420 3.7 -8.1°
